Location: Jaworzyna Śląska
(50.9128°N, 16.4318°E)
Time: 07:33:16
(UTC+02:00)

N. Korean satellite - Visible Passes

Search period start: 14 October 2019 00:00
Search period end: 24 October 2019 00:00
Orbit: 455 x 508 km, 97.2° (Epoch: 13 October)

Date Brightness Start Highest point End Pass type
(mag) Time Alt. Az. Time Alt. Az. Time Alt. Az.
14 Oct 9.3 06:12:36 10° NE 06:15:32 24° E 06:18:30 10° SSE visible
15 Oct 10.2 05:48:14 10° ENE 05:50:03 13° E 05:51:52 10° ESE visible
16 Oct 10.3 19:10:54 10° WSW 19:12:20 12° W 19:13:48 10° WNW visible
17 Oct 8.4 06:29:48 10° NNE 06:33:10 37° E 06:36:33 10° SSE visible
17 Oct 9.5 18:44:04 10° SSW 18:46:49 22° W 18:49:36 10° NW visible
18 Oct 9.6 06:04:58 10° NE 06:07:43 20° E 06:10:29 10° SE visible
19 Oct 10.4 05:40:59 10° ENE 05:42:12 11° E 05:43:24 10° ESE visible
20 Oct 7.3 06:47:09 10° NNE 06:50:43 60° E 06:54:19 10° S visible
20 Oct 10.0 19:02:26 10° SW 19:04:27 15° W 19:06:28 10° NW visible
21 Oct 8.8 06:22:04 10° NNE 06:25:20 31° E 06:28:37 10° SSE visible
21 Oct 9.1 18:35:58 10° SSW 18:38:56 27° W 18:41:56 10° NW visible
22 Oct 9.9 05:57:21 10° NE 05:59:51 17° E 06:02:21 10° SE visible
